H1 CPF 2 NER 2024 2 14 9 045 01 glonass132 H2 1401201 9132 39620 2024 2 14 0 0 0 2024 2 17 23 45 0 900 1 1 0 0 0 1 H9 10 0 60354 0.00000 0 20963814.890 364713.837 14587430.372 10 0 60354 900.00000 0 22575117.959 685356.266 11930280.666 10 0 60354 1800.00000 0 23875124.181 804331.585 9042321.787 10 0 60354 2700.00000 0 24820466.629 763614.902 5979416.124 10 0 60354 3600.00000 0 25379089.311 612543.889 2800809.678 10 0 60354 4500.00000 0 25531547.097 405504.064 -432000.887 10 0 60354 5400.00000 0 25271800.805 199400.496 -3656445.670 10 0 60354 6300.00000 0 24607474.067 51021.762 -6810081.617 10 0 60354 7200.00000 0 23559560.634 14406.691 -9831792.797 10 0 60354 8100.00000 0 22161593.046 138324.680 -12662968.338 10 0 60354 9000.00000 0 20458306.125 463975.949 -15248635.614 10 0 60354 9900.00000 0 18503849.666 1023009.298 -17538526.937 10 0 60354 10800.00000 0 16359623.510 1835942.072 -19488059.103 10 0 60354 11700.00000 0 14091824.044 2911050.548 -21059206.627 10 0 60354 12600.00000 0 11768803.436 4243779.624 -22221251.321 10 0 60354 13500.00000 0 9458350.947 5816699.149 -22951393.050 10 0 60354 14400.00000 0 7225009.288 7600011.466 -23235209.009 10 0 60354 15300.00000 0 5127537.855 9552591.629 -23066951.552 10 0 60354 16200.00000 0 3216628.927 11623519.232 -22449677.625 10 0 60354 17100.00000 0 1532972.601 13754039.838 -21395205.966 10 0 60354 18000.00000 0 105751.984 15879875.438 -19923901.595 10 0 60354 18900.00000 0 -1048367.858 17933788.103 -18064290.536 10 0 60354 19800.00000 0 -1925714.340 19848289.662 -15852511.219 10 0 60354 20700.00000 0 -2535525.106 21558383.319 -13331612.520 10 0 60354 21600.00000 0 -2899312.818 23004221.255 -10550711.801 10 0 60354 22500.00000 0 -3049704.435 24133565.219 -7564029.522 10 0 60354 23400.00000 0 -3028805.233 24903945.200 -4429819.948 10 0 60354 24300.00000 0 -2886158.396 25284423.994 -1209219.959 10 0 60354 25200.00000 0 -2676388.650 25256892.291 2034960.054 10 0 60354 26100.00000 0 -2456632.018 24816839.185 5239477.810 10 0 60354 27000.00000 0 -2283862.991 23973565.687 8341907.216 10 0 60354 27900.00000 0 -2212234.555 22749832.902 11281866.861 10 0 60354 28800.00000 0 -2290545.578 21180960.870 14002203.548 10 0 60354 29700.00000 0 -2559944.114 19313417.551 16450106.879 10 0 60354 30600.00000 0 -3051964.440 17202958.935 18578132.858 10 0 60354 31500.00000 0 -3786980.913 14912399.969 20345116.807 10 0 60354 32400.00000 0 -4773143.427 12509110.954 21716958.716 10 0 60354 33300.00000 0 -6005838.559 10062344.859 22667267.123 10 0 60354 34200.00000 0 -7467698.079 7640507.290 23177850.667 10 0 60354 35100.00000 0 -9129153.550 5308482.252 23239049.711 10 0 60354 36000.00000 0 -10949513.058 3125123.721 22849903.434 10 0 60354 36900.00000 0 -12878514.654 1141015.459 22018150.858 10 0 60354 37800.00000 0 -14858291.668 -603410.198 20760067.161 10 0 60354 38700.00000 0 -16825668.448 -2079319.009 19100139.370 10 0 60354 39600.00000 0 -18714691.673 -3270429.428 17070588.170 10 0 60354 40500.00000 0 -20459293.047 -4173437.912 14710745.085 10 0 60354 41400.00000 0 -21995973.748 -4797899.352 12066296.585 10 0 60354 42300.00000 0 -23266400.273 -5165569.299 9188408.998 10 0 60354 43200.00000 0 -24219804.741 -5309236.603 6132750.096 10 0 60354 44100.00000 0 -24815090.518 -5271095.926 2958425.086 10 0 60354 45000.00000 0 -25022555.897 -5100728.482 -273153.578 10 0 60354 45900.00000 0 -24825163.943 -4852775.585 -3499441.871 10 0 60354 46800.00000 0 -24219305.289 -4584402.362 -6657963.604 10 0 60354 47700.00000 0 -23215021.092 -4352657.881 -9687511.174 10 0 60354 48600.00000 0 -21835675.719 -4211842.483 -12529325.055 10 0 60354 49500.00000 0 -20117091.323 -4210993.097 -15128229.635 10 0 60354 50400.00000 0 -18106178.667 -4391592.816 -17433703.604 10 0 60354 51300.00000 0 -15859119.689 -4785601.961 -19400864.197 10 0 60354 52200.00000 0 -13439175.906 -5413894.790 -20991346.042 10 0 60354 53100.00000 0 -10914212.571 -6285169.397 -22174057.149 10 0 60354 54000.00000 0 -8354040.576 -7395378.805 -22925796.805 10 0 60354 54900.00000 0 -5827685.960 -8727709.593 -23231722.563 10 0 60354 55800.00000 0 -3400700.371 -10253111.541 -23085656.230 10 0 60354 56700.00000 0 -1132624.428 -11931358.531 -22490221.719 10 0 60354 57600.00000 0 925290.031 -13712598.460 -21456810.799 10 0 60354 58500.00000 0 2732003.280 -15539328.888 -20005376.058 10 0 60354 59400.00000 0 4258175.731 -17348716.727 -18164053.871 10 0 60354 60300.00000 0 5487157.898 -19075165.143 -15968623.631 10 0 60354 61200.00000 0 6415440.512 -20653019.652 -13461813.045 10 0 60354 62100.00000 0 7052545.925 -22019298.928 -10692462.706 10 0 60354 63000.00000 0 7420365.936 -23116334.178 -7714566.333 10 0 60354 63900.00000 0 7551974.924 -23894204.424 -4586206.108 10 0 60354 64800.00000 0 7489969.976 -24312863.516 -1368404.983 10 0 60354 65700.00000 0 7284410.115 -24343867.800 1876080.145 10 0 60354 66600.00000 0 6990444.172 -23971630.567 5083999.042 10 0 60354 67500.00000 0 6665730.124 -23194149.907 8192856.505 10 0 60354 68400.00000 0 6367757.584 -22023179.382 11142142.421 10 0 60354 69300.00000 0 6151188.848 -20483835.016 13874518.102 10 0 60354 70200.00000 0 6065332.672 -18613656.269 16336934.826 10 0 60354 71100.00000 0 6151858.577 -16461161.887 18481662.441 10 0 60354 72000.00000 0 6442848.631 -14083962.688 20267208.193 10 0 60354 72900.00000 0 6959268.617 -11546511.645 21659108.766 10 0 60354 73800.00000 0 7709922.280 -8917586.180 22630581.433 10 0 60354 74700.00000 0 8690931.560 -6267608.131 23163023.366 10 0 60354 75600.00000 0 9885763.453 -3665912.693 23246351.256 10 0 60354 76500.00000 0 11265801.301 -1178078.914 22879176.563 10 0 60354 77400.00000 0 12791435.747 1136568.901 22068814.658 10 0 60354 78300.00000 0 14413629.299 3227187.301 20831129.099 10 0 60354 79200.00000 0 16075889.177 5053277.398 19190214.982 10 0 60354 80100.00000 0 17716566.534 6586111.348 17177928.026 10 0 60354 81000.00000 0 19271386.917 7809664.944 14833268.479 10 0 60354 81900.00000 0 20676107.578 8721019.838 12201631.354 10 0 60354 82800.00000 0 21869191.955 9330220.592 9333936.758 10 0 60354 83700.00000 0 22794390.822 9659593.923 6285656.082 10 0 60354 84600.00000 0 23403123.471 9742559.582 3115751.725 10 0 60354 85500.00000 0 23656559.920 9621982.982 -114450.304 10 0 60355 0.00000 0 23527317.415 9348138.725 -3342433.997 10 0 60355 900.00000 0 23000699.967 8976370.055 -6505693.201 10 0 60355 1800.00000 0 22075428.588 8564542.537 -9542930.991 10 0 60355 2700.00000 0 20763830.242 8170398.096 -12395241.791 10 0 60355 3600.00000 0 19091476.045 7848920.802 -15007249.516 10 0 60355 4500.00000 0 17096281.951 7649825.164 -17328181.609 10 0 60355 5400.00000 0 14827107.441 7615273.043 -19312857.949 10 0 60355 6300.00000 0 12341908.634 7777916.115 -20922575.289 10 0 60355 7200.00000 0 9705520.924 8159347.502 -22125869.670 10 0 60355 8100.00000 0 6987161.885 8769029.443 -22899141.434 10 0 60355 9000.00000 0 4257757.142 9603744.084 -23227129.900 10 0 60355 9900.00000 0 1587199.687 10647592.764 -23103227.449 10 0 60355 10800.00000 0 -958343.694 11872546.081 -22529625.755 10 0 60355 11700.00000 0 -3318966.753 13239523.828 -21517290.008 10 0 60355 12600.00000 0 -5443292.897 14699961.205 -20085760.321 10 0 60355 13500.00000 0 -7290383.956 16197796.871 -18262782.918 10 0 60355 14400.00000 0 -8831208.293 17671799.970 -16083777.193 10 0 60355 15300.00000 0 -10049606.339 19058138.310 -13591148.305 10 0 60355 16200.00000 0 -10942712.905 20293079.002 -10833458.295 10 0 60355 17100.00000 0 -11520818.786 21315706.675 -7864472.026 10 0 60355 18000.00000 0 -11806678.186 22070543.116 -4742097.189 10 0 60355 18900.00000 0 -11834292.440 22509956.132 -1527240.163 10 0 60355 19800.00000 0 -11647223.165 22596254.293 1717398.488 10 0 60355 20700.00000 0 -11296508.308 22303377.724 4928563.555 10 0 60355 21600.00000 0 -10838271.652 21618112.626 8043693.788 10 0 60355 22500.00000 0 -10331129.389 20540777.871 11002153.463 10 0 60355 23400.00000 0 -9833505.744 19085354.886 13746421.457 10 0 60355 24300.00000 0 -9400973.065 17279056.066 16223213.688 10 0 60355 25200.00000 0 -9083730.096 15161350.888 18384516.647 10 0 60355 26100.00000 0 -8924325.546 12782491.877 20188512.100 10 0 60355 27000.00000 0 -8955722.937 10201603.377 21600375.737 10 0 60355 27900.00000 0 -9199787.567 7484413.956 22592935.574 10 0 60355 28800.00000 0 -9666258.167 4700727.618 23147178.950 10 0 60355 29700.00000 0 -10352244.999 1921739.064 23252600.127 10 0 60355 30600.00000 0 -11242274.100 -782696.079 22907383.639 10 0 60355 31500.00000 0 -12308874.456 -3346723.944 22118421.535 10 0 60355 32400.00000 0 -13513682.639 -5710979.420 20901165.590 10 0 60355 33300.00000 0 -14809018.137 -7824796.574 19279318.321 10 0 60355 34200.00000 0 -16139863.503 -9648053.252 17284369.337 10 0 60355 35100.00000 0 -17446166.974 -11152575.832 14954986.022 10 0 60355 36000.00000 0 -18665372.123 -12323048.174 12336269.937 10 0 60355 36900.00000 0 -19735069.758 -13157388.973 9478892.596 10 0 60355 37800.00000 0 -20595662.455 -13666583.535 6438126.347 10 0 60355 38700.00000 0 -21192931.167 -13873978.080 3272787.890 10 0 60355 39600.00000 0 -21480397.157 -13814066.666 44113.700 10 0 60355 40500.00000 0 -21421380.933 -13530821.794 -3185412.031 10 0 60355 41400.00000 0 -20990671.714 -13075638.452 -6353255.325 10 0 60355 42300.00000 0 -20175736.999 -12504977.482 -9398033.875 10 0 60355 43200.00000 0 -18977420.462 -11877806.768 -12260699.432 10 0 60355 44100.00000 0 -17410097.303 -11252947.263 -14885678.739 10 0 60355 45000.00000 0 -15501278.574 -10686435.238 -17221951.131 10 0 60355 45900.00000 0 -13290678.816 -10229011.650 -19224041.996 10 0 60355 46800.00000 0 -10828783.557 -9923844.663 -20852912.686 10 0 60355 47700.00000 0 -8174974.186 -9804581.869 -22076729.250 10 0 60355 48600.00000 0 -5395286.263 -9893815.332 -22871494.479 10 0 60355 49500.00000 0 -2559892.836 -10202025.574 -23221530.228 10 0 60355 50400.00000 0 259583.731 -10727050.727 -23119799.608 10 0 60355 51300.00000 0 2992820.415 -11454105.137 -22568061.625 10 0 60355 52200.00000 0 5573488.638 -12356348.594 -21576853.962 10 0 60355 53100.00000 0 7941783.432 -13395983.980 -20165302.877 10 0 60355 54000.00000 0 10046680.866 -14525838.520 -18360762.681 10 0 60355 54900.00000 0 11847828.897 -15691362.927 -16198290.686 10 0 60355 55800.00000 0 13316991.982 -16832964.465 -13719967.108 10 0 60355 56700.00000 0 14438988.502 -17888575.174 -10974072.785 10 0 60355 57600.00000 0 15212081.613 -18796345.958 -8014140.829 10 0 60355 58500.00000 0 15647807.385 -19497351.307 -4897901.357 10 0 60355 59400.00000 0 15770248.430 -19938188.685 -1686140.951 10 0 60355 60300.00000 0 15614785.092 -20073360.897 1558499.431 10 0 60355 61200.00000 0 15226378.844 -19867339.067 4772762.854 10 0 60355 62100.00000 0 14657462.735 -19296217.718 7894025.139 10 0 60355 63000.00000 0 13965530.499 -18348891.168 10861527.865 10 0 60355 63900.00000 0 13210528.600 -17027701.301 13617570.103 10 0 60355 64800.00000 0 12452163.531 -15348529.654 16108634.679 10 0 60355 65700.00000 0 11747239.629 -13340330.590 18286426.616 10 0 60355 66600.00000 0 11147140.692 -11044126.127 20108803.644 10 0 60355 67500.00000 0 10695561.754 -8511505.646 21540581.478 10 0 60355 68400.00000 0 10426586.027 -5802694.092 22554199.454 10 0 60355 69300.00000 0 10363186.804 -2984269.975 23130235.229 10 0 60355 70200.00000 0 10516215.745 -126628.359 23257760.389 10 0 60355 71100.00000 0 10883918.272 2698706.095 22934531.950 10 0 60355 72000.00000 0 11451994.712 5421805.406 22167017.743 10 0 60355 72900.00000 0 12194203.129 7976992.325 20970256.617 10 0 60355 73800.00000 0 13073477.546 10305314.131 19367557.177 10 0 60355 74700.00000 0 14043514.136 12356735.817 17390041.430 10 0 60355 75600.00000 0 15050758.898 14091964.119 15076042.269 10 0 60355 76500.00000 0 16036714.023 15483829.013 12470366.048 10 0 60355 77400.00000 0 16940467.048 16518167.315 9623433.826 10 0 60355 78300.00000 0 17701337.908 17194173.426 6590316.907 10 0 60355 79200.00000 0 18261533.877 17524203.834 3429684.137 10 0 60355 80100.00000 0 18568701.988 17533044.365 202680.219 10 0 60355 81000.00000 0 18578272.364 17256671.058 -3028244.508 10 0 60355 81900.00000 0 18255494.260 16740556.528 -6200531.203 10 0 60355 82800.00000 0 17577079.211 16037592.446 -9252714.227 10 0 60355 83700.00000 0 16532381.258 15205714.650 -12125604.912 10 0 60355 84600.00000 0 15124063.387 14305330.003 -14763434.964 10 0 60355 85500.00000 0 13368220.310 13396652.523 -17114937.583 10 0 60356 0.00000 0 11293950.288 12537060.463 -19134345.301 10 0 60356 900.00000 0 8942390.238 11778584.914 -20782286.078 10 0 60356 1800.00000 0 6365254.663 11165636.973 -22026557.241 10 0 60356 2700.00000 0 3622933.198 10733068.145 -22842765.334 10 0 60356 3600.00000 0 782226.545 10504647.742 -23214815.853 10 0 60356 4500.00000 0 -2086187.706 10492022.205 -23135243.490 10 0 60356 5400.00000 0 -4910455.011 10694201.705 -22605375.134 10 0 60356 6300.00000 0 -7620297.903 11097597.295 -21635321.119 10 0 60356 7200.00000 0 -10149709.623 11676608.556 -20243793.593 10 0 60356 8100.00000 0 -12439474.864 12394738.277 -18457754.260 10 0 60356 9000.00000 0 -14439411.925 13206188.078 -16311897.233 10 0 60356 9900.00000 0 -16110241.841 14057868.030 -13847976.299 10 0 60356 10800.00000 0 -17425005.609 14891735.213 -11113989.296 10 0 60356 11700.00000 0 -18369969.666 15647361.599 -8163235.556 10 0 60356 12600.00000 0 -18944981.490 16264621.379 -5053265.406 10 0 60356 13500.00000 0 -19163260.861 16686382.347 -1844743.282 10 0 60356 14400.00000 0 -19050636.590 16861085.553 1399751.932 10 0 60356 15300.00000 0 -18644262.490 16745102.210 4616964.137 10 0 60356 16200.00000 0 -17990868.834 16304766.470 7744208.882 10 0 60356 17100.00000 0 -17144625.436 15517996.900 10720607.767 10 0 60356 18000.00000 0 -16164709.026 14375437.407 13488282.797 10 0 60356 18900.00000 0 -15112679.791 12881069.303 15993486.439 10 0 60356 19800.00000 0 -14049779.626 11052268.997 18187644.873 10 0 60356 20700.00000 0 -13034267.170 8919309.580 20028294.267 10 0 60356 21600.00000 0 -12118902.409 6524328.060 21479892.586 10 0 60356 22500.00000 0 -11348686.343 3919802.316 22514492.409 10 0 60356 23400.00000 0 -10758949.820 1166602.086 23112263.275 10 0 60356 24300.00000 0 -10373870.197 -1668304.481 23261855.264 10 0 60356 25200.00000 0 -10205476.168 -4514393.490 22960598.620 10 0 60356 26100.00000 0 -10253180.450 -7300272.203 22214537.273 10 0 60356 27000.00000 0 -10503857.928 -9956399.957 21038297.023 10 0 60356 27900.00000 0 -10932464.390 -12417731.937 19454792.003 10 0 60356 28800.00000 0 -11503168.692 -14626178.206 17494775.651 10 0 60356 29700.00000 0 -12170950.293 -16532778.215 15196245.021 10 0 60356 30600.00000 0 -12883595.037 -18099502.740 12603709.555 10 0 60356 31500.00000 0 -13584005.911 -19300610.488 9767337.854 10 0 60356 32400.00000 0 -14212732.516 -20123504.708 6741997.918 10 0 60356 33300.00000 0 -14710613.975 -20569055.431 3586208.294 10 0 60356 34200.00000 0 -15021425.170 -20651374.787 361019.261 10 0 60356 35100.00000 0 -15094415.809 -20397055.117 -2871155.511 10 0 60356 36000.00000 0 -14886636.023 -19843901.804 -6047735.256 10 0 60356 36900.00000 0 -14364950.665 -19039213.433 -9107174.085 10 0 60356 37800.00000 0 -13507657.069 -18037680.733 -11990146.084 10 0 60356 38700.00000 0 -12305637.150 -16898991.643 -14640691.111 10 0 60356 39600.00000 0 -10762993.641 -15685242.174 -17007299.365 10 0 60356 40500.00000 0 -8897141.660 -14458261.133 -19043913.823 10 0 60356 41400.00000 0 -6738349.144 -13276960.583 -20710831.001 10 0 60356 42300.00000 0 -4328742.673 -12194823.192 -21975482.186 10 0 60356 43200.00000 0 -1720817.424 -11257632.182 -22813079.462 10 0 60356 44100.00000 0 1024489.136 -10501539.795 -23207113.211 10 0 60356 45000.00000 0 3840081.720 -9951556.324 -23149690.388 10 0 60356 45900.00000 0 6655256.414 -9620524.323 -22641705.892 10 0 60356 46800.00000 0 9398409.608 -9508622.390 -21692842.338 10 0 60356 47700.00000 0 11999794.318 -9603420.685 -20321396.934 10 0 60356 48600.00000 0 14394209.049 -9880486.908 -18553937.519 10 0 60356 49500.00000 0 16523506.554 -10304518.039 -16424793.335 10 0 60356 50400.00000 0 18338816.918 -10830950.425 -13975389.670 10 0 60356 51300.00000 0 19802391.074 -11407980.058 -11253438.888 10 0 60356 52200.00000 0 20888986.782 -11978906.931 -8312003.683 10 0 60356 53100.00000 0 21586738.359 -12484703.036 -5208451.397 10 0 60356 54000.00000 0 21897473.614 -12866693.631 -2003320.853 10 0 60356 54900.00000 0 21836465.195 -13069236.288 1240874.761 10 0 60356 55800.00000 0 21431627.925 -13042282.218 4460883.846 10 0 60356 56700.00000 0 20722197.667 -12743709.581 7593965.250 10 0 60356 57600.00000 0 19756949.519 -12141328.426 10579123.939 10 0 60356 58500.00000 0 18592032.772 -11214471.409 13358307.893 10 0 60356 59400.00000 0 17288516.211 -9955102.517 15877541.846 10 0 60356 60300.00000 0 15909749.164 -8368396.987 18087975.327 10 0 60356 61200.00000 0 14518650.909 -6472768.385 19946824.660 10 0 60356 62100.00000 0 13175043.286 -4299342.362 21418191.303 10 0 60356 63000.00000 0 11933138.599 -1890899.888 22473741.845 10 0 60356 63900.00000 0 10839287.588 699665.144 23093238.015 10 0 60356 64800.00000 0 9930080.465 3411309.153 23264908.246 10 0 60356 65700.00000 0 9230878.672 6177141.191 22985655.453 10 0 60356 66600.00000 0 8754836.625 8926969.000 22261098.710 10 0 60356 67500.00000 0 8502452.079 11589984.036 21105449.482 10 0 60356 68400.00000 0 8461661.820 14097475.447 19541225.848 10 0 60356 69300.00000 0 8608476.874 16385462.142 17598810.857 10 0 60356 70200.00000 0 8908129.369 18397135.728 15315863.696 10 0 60356 71100.00000 0 9316682.234 20085015.009 12736594.726 10 0 60356 72000.00000 0 9783034.084 21412724.484 9910917.780 10 0 60356 72900.00000 0 10251235.382 22356324.502 6893495.127 10 0 60356 73800.00000 0 10663019.323 22905139.250 3742692.495 10 0 60356 74700.00000 0 10960441.750 23062048.707 519463.164 10 0 60356 75600.00000 0 11088519.830 22843232.889 -2713818.452 10 0 60356 76500.00000 0 10997759.075 22277379.106 -5894552.215 10 0 60356 77400.00000 0 10646462.543 21404384.957 -8961114.429 10 0 60356 78300.00000 0 10002724.789 20273610.644 -11854044.205 10 0 60356 79200.00000 0 9046025.790 18941752.885 -14517191.632 10 0 60356 80100.00000 0 7768356.438 17470428.547 -16898805.768 10 0 60356 81000.00000 0 6174826.326 15923568.364 -18952541.504 10 0 60356 81900.00000 0 4283725.880 14364729.274 -20638365.698 10 0 60356 82800.00000 0 2126037.523 12854437.544 -21923344.613 10 0 60356 83700.00000 0 -255586.601 11447673.929 -22782296.881 10 0 60356 84600.00000 0 -2808340.419 10191606.451 -23198298.530 10 0 60356 85500.00000 0 -5471212.521 9123666.409 -23163029.269 10 0 60357 0.00000 0 -8177288.171 8270049.162 -22676952.217 10 0 60357 900.00000 0 -10856311.786 7644703.113 -21749321.940 10 0 60357 1800.00000 0 -13437400.341 7248851.499 -20398020.051 10 0 60357 2700.00000 0 -15851799.689 7071066.431 -18649219.412 10 0 60357 3600.00000 0 -18035564.863 7087893.965 -16536882.896 10 0 60357 4500.00000 0 -19932053.081 7265003.637 -14102105.456 10 0 60357 5400.00000 0 -21494123.952 7558813.879 -11392311.908 10 0 60357 6300.00000 0 -22685953.659 7918523.954 -8460326.069 10 0 60357 7200.00000 0 -23484386.103 8288465.256 -5363329.961 10 0 60357 8100.00000 0 -23879763.729 8610670.757 -2161734.413 10 0 60357 9000.00000 0 -23876203.086 8827551.813 1082015.508 10 0 60357 9900.00000 0 -23491304.087 8884566.754 4304675.156 10 0 60357 10800.00000 0 -22755306.450 8732766.131 7443449.163 10 0 60357 11700.00000 0 -21709730.533 8331104.997 10437228.389 10 0 60357 12600.00000 0 -20405561.931 7648422.952 13227789.296 10 0 60357 13500.00000 0 -18901058.483 6665007.327 15760931.359 10 0 60357 14400.00000 0 -17259274.035 5373673.172 17987529.806 10 0 60357 15300.00000 0 -15545404.816 3780314.611 19864483.265 10 0 60357 16200.00000 0 -13824070.984 1903904.896 21355538.562 10 0 60357 17100.00000 0 -12156647.784 -224054.220 22431977.828 10 0 60357 18000.00000 0 -10598757.787 -2560609.994 23073156.123 10 0 60357 18900.00000 0 -9198028.046 -5052917.547 23266880.971 10 0 60357 19800.00000 0 -7992204.185 -7640214.834 23009628.280 10 0 60357 20700.00000 0 -7007698.044 -10256131.667 22306592.203 10 0 60357 21600.00000 0 -6258627.093 -12831237.425 21171569.425 10 0 60357 22500.00000 0 -5746383.281 -15295722.731 19626681.182 10 0 60357 23400.00000 0 -5459747.101 -17582105.188 17701939.025 10 0 60357 24300.00000 0 -5375540.259 -19627848.571 15434662.881 10 0 60357 25200.00000 0 -5459788.278 -21377788.568 12868762.388 10 0 60357 26100.00000 0 -5669343.572 -22786266.006 10053894.745 10 0 60357 27000.00000 0 -5953900.679 -23818880.572 7044514.477 10 0 60357 27900.00000 0 -6258319.303 -24453793.259 3898832.331 10 0 60357 28800.00000 0 -6525158.003 -24682524.053 677702.294 10 0 60357 29700.00000 0 -6697312.689 -24510212.166 -2556542.857 10 0 60357 30600.00000 0 -6720649.407 -23955327.690 -5741286.109 10 0 60357 31500.00000 0 -6546520.948 -23048846.431 -8814828.577 10 0 60357 32400.00000 0 -6134061.389 -21832921.696 -11717577.125 10 0 60357 33300.00000 0 -5452161.397 -20359107.417 -14393194.866 10 0 60357 34200.00000 0 -4481040.103 -18686205.888 -16789692.514 10 0 60357 35100.00000 0 -3213345.836 -16877829.057 -18860439.585 10 0 60357 36000.00000 0 -1654737.315 -14999774.388 -20565075.793 10 0 60357 36900.00000 0 176081.670 -13117324.322 -21870304.599 10 0 60357 37800.00000 0 2247878.348 -11292581.847 -22750553.012 10 0 60357 38700.00000 0 4517939.172 -9581953.450 -23188484.103 10 0 60357 39600.00000 0 6933609.065 -8033884.991 -23175351.256 10 0 60357 40500.00000 0 9434259.837 -6686945.724 -22711186.141 10 0 60357 41400.00000 0 11953607.592 -5568341.376 -21804815.459 10 0 60357 42300.00000 0 14422283.639 -4692919.429 -20473704.770 10 0 60357 43200.00000 0 16770552.256 -4062709.080 -18743631.133 10 0 60357 44100.00000 0 18931061.764 -3667015.782 -16648189.801 10 0 60357 45000.00000 0 20841513.258 -3483066.667 -14228143.712 10 0 60357 45900.00000 0 22447134.313 -3477179.471 -11530628.001 10 0 60357 46800.00000 0 23702852.793 -3606404.975 -8608225.033 10 0 60357 47700.00000 0 24575078.289 -3820572.390 -5517928.531 10 0 60357 48600.00000 0 25043015.434 -4064649.481 -2320018.011 10 0 60357 49500.00000 0 25099453.292 -4281315.510 923133.122 10 0 60357 50400.00000 0 24750997.635 -4413635.768 4148290.820 10 0 60357 51300.00000 0 24017736.969 -4407722.117 7292609.111 10 0 60357 52200.00000 0 22932357.596 -4215264.804 10294868.187 10 0 60357 53100.00000 0 21538746.681 -3795826.634 13096676.184 10 0 60357 54000.00000 0 19890144.071 -3118801.246 15643610.150 10 0 60357 54900.00000 0 18046922.577 -2164952.096 17886273.461 10 0 60357 55800.00000 0 16074091.762 -927467.101 19781249.081 10 0 60357 56700.00000 0 14038631.282 587515.158 21291930.802 10 0 60357 57600.00000 0 12006766.208 2360929.183 22389217.461 10 0 60357 58500.00000 0 10041298.313 4361354.529 23052058.169 10 0 60357 59400.00000 0 8199104.046 6546111.371 23267839.803 10 0 60357 60300.00000 0 6528902.138 8862833.510 23032611.072 10 0 60357 61200.00000 0 5069381.904 11251453.080 22351140.554 10 0 60357 62100.00000 0 3847767.853 13646514.674 21236809.060 10 0 60357 63000.00000 0 2878877.808 15979723.395 19711339.486 10 0 60357 63900.00000 0 2164711.343 18182622.027 17804370.032 10 0 60357 64800.00000 0 1694583.385 20189287.558 15552879.223 10 0 60357 65700.00000 0 1445795.601 21938936.551 13000473.581 10 0 60357 66600.00000 0 1384816.142 23378332.646 10196551.114 10 0 60357 67500.00000 0 1468917.597 24463897.554 7195355.883 10 0 60357 68400.00000 0 1648204.213 25163438.866 4054940.832 10 0 60357 69300.00000 0 1867943.453 25457423.461 836057.811 10 0 60357 70200.00000 0 2071104.343 25339743.788 -2399004.926 10 0 60357 71100.00000 0 2200996.301 24817944.935 -5587616.314 10 0 60357 72000.00000 0 2203897.885 23912902.625 -8668004.956 10 0 60357 72900.00000 0 2031564.945 22657964.631 -11580447.967 10 0 60357 73800.00000 0 1643512.376 21097590.367 -14268423.754 10 0 60357 74700.00000 0 1008972.749 19285544.191 -16679706.689 10 0 60357 75600.00000 0 108448.133 17282716.489 -18767382.652 10 0 60357 76500.00000 0 -1065211.910 15154662.333 -20490765.682 10 0 60357 77400.00000 0 -2506253.675 12968959.430 -21816197.644 10 0 60357 78300.00000 0 -4196010.019 10792494.860 -22717714.877 10 0 60357 79200.00000 0 -6103441.588 8688793.422 -23177568.148 10 0 60357 80100.00000 0 -8186208.755 6715499.022 -23186584.842 10 0 60357 81000.00000 0 -10392231.992 4922114.486 -22744365.194 10 0 60357 81900.00000 0 -12661677.671 3348094.702 -21859307.477 10 0 60357 82800.00000 0 -14929287.907 2021373.495 -20548460.284 10 0 60357 83700.00000 0 -17126958.009 957386.530 -18837203.491 10 0 60357 84600.00000 0 -19186454.058 158631.767 -16758762.936 10 0 60357 85500.00000 0 -21042156.458 -385213.791 -14353567.405 99